Weather History for Zephyrhills, FL

Change the Weather History Date:

Friday, December 7, 2012

  Actual Average (KPCM) Record (KPCM)
Temperature  
Mean Temperature 67 °F -  
Max Temperature 77 °F 75 °F 88 °F (1978)
Min Temperature 57 °F 51 °F 27 °F (1937)
Cooling Degree Days 2    
Growing Degree Days 17 (Base 50)    
Moisture  
Dew Point 61 °F    
Average Humidity 89    
Maximum Humidity 100    
Minimum Humidity 54    
Precipitation  
Precipitation 0.00 in - - ()
Sea Level Pressure  
Sea Level Pressure 30.00 in    
Wind  
Wind Speed 0 mph (NE)    
Max Wind Speed 4 mph    
Max Gust Speed -    
Visibility 7 miles    
Events Fog    
Averages and records for this station are not official NWS values.
T = Trace of Precipitation, MM = Missing Value Source: NWS Daily Summary

Daily Weather History Graph

Daily Weather History Graph

Search for Another Location

Airport:

Trip Planner

Search our weather history database for the weather conditions in past years. The results will help you decide how hot, cold, wet, or windy it might be!

Date:

Astronomy

Dec. 07, 2012 Rise Set
Actual Time 7:07 AM EST 5:32 PM EST
Civil Twilight 6:42 AM EST 5:58 PM EST
Nautical Twilight 6:13 AM EST 6:27 PM EST
Astronomical Twilight 5:44 AM EST 6:56 PM EST
Moon 12:53 AM EST (12/7) 1:04 PM EST (12/7)
Length of Visible Light 11h 16m
Length of Day
10h 24m
Last Quarter, 39% of the Moon is Illuminated
Dec 7
Last Quarter
Dec 13
New
Dec 20
First Quarter
Dec 28
Full
Jan 4
Last Quarter

Hourly Weather History & Observations

Time (EST) Temp. Dew Point Humidity Pressure Visibility Wind Dir Wind Speed Gust Speed Precip Events Conditions
12:15 AM 59.0 °F 59.0 °F 100% 30.00 in 10.0 mi Calm Calm - N/A   Clear
12:35 AM 59.0 °F 59.0 °F 100% 30.00 in 10.0 mi Calm Calm - N/A   Clear
12:55 AM 59.0 °F 59.0 °F 100% 30.00 in 10.0 mi Calm Calm - N/A   Clear
1:15 AM 57.2 °F 57.2 °F 100% 29.99 in 7.0 mi Calm Calm - N/A   Clear
1:35 AM 59.0 °F 59.0 °F 100% 29.99 in 5.0 mi Calm Calm - N/A   Scattered Clouds
1:55 AM 60.8 °F 60.8 °F 100% 29.99 in 1.0 mi Calm Calm - N/A   Overcast
2:15 AM 60.8 °F 60.8 °F 100% 29.99 in 0.5 mi Calm Calm - N/A Fog Fog
2:35 AM 60.8 °F 60.8 °F 100% 29.99 in 0.5 mi Calm Calm - N/A Fog Fog
2:55 AM 60.8 °F 60.8 °F 100% 29.99 in 0.5 mi Calm Calm - N/A Fog Fog
3:15 AM 60.8 °F 60.8 °F 100% 29.99 in 0.8 mi Calm Calm - N/A   Overcast
3:35 AM 60.8 °F 60.8 °F 100% 29.99 in 0.8 mi Calm Calm - N/A   Overcast
3:55 AM 60.8 °F 60.8 °F 100% 29.97 in 0.8 mi Calm Calm - N/A   Overcast
4:15 AM 60.8 °F 60.8 °F 100% 29.98 in 0.8 mi Calm Calm - N/A   Overcast
4:35 AM 60.8 °F 60.8 °F 100% 29.98 in 0.8 mi Calm Calm - N/A   Overcast
4:55 AM 60.8 °F 60.8 °F 100% 29.98 in 1.0 mi Calm Calm - N/A   Overcast
5:15 AM 60.8 °F 60.8 °F 100% 29.98 in 1.2 mi Calm Calm - N/A   Overcast
5:35 AM 60.8 °F 60.8 °F 100% 29.98 in 5.0 mi Calm Calm - N/A   Overcast
5:55 AM 60.8 °F 60.8 °F 100% 29.99 in 2.0 mi Calm Calm - N/A   Overcast
6:15 AM 60.8 °F 60.8 °F 100% 29.99 in 5.0 mi Calm Calm - N/A   Overcast
6:35 AM 60.8 °F 60.8 °F 100% 30.00 in 2.5 mi Calm Calm - N/A   Overcast
6:55 AM 60.8 °F 60.8 °F 100% 30.00 in 2.0 mi Calm Calm - N/A   Overcast
7:15 AM 60.8 °F 60.8 °F 100% 30.00 in 2.5 mi Calm Calm - N/A   Overcast
7:35 AM 60.8 °F 60.8 °F 100% 30.00 in 1.8 mi Calm Calm - N/A   Overcast
7:55 AM 60.8 °F 60.8 °F 100% 30.01 in 2.5 mi NE 3.5 mph - N/A   Overcast
8:15 AM 60.8 °F 60.8 °F 100% 30.02 in 4.0 mi Calm Calm - N/A   Overcast
8:35 AM 60.8 °F 60.8 °F 100% 30.03 in 4.0 mi Calm Calm - N/A   Overcast
8:55 AM 60.8 °F 60.8 °F 100% 30.04 in 4.0 mi Calm Calm - N/A   Overcast
9:15 AM 60.8 °F 60.8 °F 100% 30.05 in 7.0 mi Calm Calm - N/A   Overcast
9:35 AM 60.8 °F 60.8 °F 100% 30.05 in 7.0 mi Calm Calm - N/A   Overcast
9:55 AM 60.8 °F 60.8 °F 100% 30.05 in 10.0 mi Calm Calm - N/A   Overcast
10:15 AM 62.6 °F 62.6 °F 100% 30.06 in 10.0 mi Calm Calm - N/A   Overcast
10:35 AM 64.4 °F 62.6 °F 94% 30.05 in 10.0 mi Calm Calm - N/A   Overcast
10:55 AM 66.2 °F 62.6 °F 88% 30.05 in 10.0 mi Calm Calm - N/A   Overcast
11:15 AM 68.0 °F 62.6 °F 83% 30.04 in 10.0 mi Calm Calm - N/A   Overcast
11:35 AM 68.0 °F 62.6 °F 83% 30.03 in 10.0 mi Calm Calm - N/A   Overcast
11:55 AM 69.8 °F 64.4 °F 83% 30.02 in 10.0 mi Calm Calm - N/A   Overcast
12:15 PM 71.6 °F 64.4 °F 78% 30.01 in 10.0 mi Calm Calm - N/A   Scattered Clouds
12:35 PM 71.6 °F 64.4 °F 78% 30.00 in 10.0 mi Calm Calm - N/A   Scattered Clouds
12:55 PM 73.4 °F 62.6 °F 69% 29.99 in 10.0 mi Calm Calm - N/A   Scattered Clouds
1:15 PM 75.2 °F 60.8 °F 61% 29.98 in 10.0 mi Calm Calm - N/A   Scattered Clouds
1:35 PM 75.2 °F 60.8 °F 61% 29.97 in 10.0 mi Calm Calm - N/A   Clear
1:55 PM 75.2 °F 60.8 °F 61% 29.97 in 10.0 mi Calm Calm - N/A   Clear
2:15 PM 77.0 °F 60.8 °F 57% 29.96 in 10.0 mi Calm Calm - N/A   Clear
2:35 PM 75.2 °F 60.8 °F 61% 29.96 in 10.0 mi Calm Calm - N/A   Scattered Clouds
2:55 PM 77.0 °F 59.0 °F 54% 29.96 in 10.0 mi Calm Calm - N/A   Mostly Cloudy
3:15 PM 77.0 °F 59.0 °F 54% 29.95 in 10.0 mi Calm Calm - N/A   Scattered Clouds
3:35 PM 77.0 °F 59.0 °F 54% 29.95 in 10.0 mi Calm Calm - N/A   Clear
3:55 PM 77.0 °F 59.0 °F 54% 29.95 in 10.0 mi Calm Calm - N/A   Clear
4:15 PM 77.0 °F 59.0 °F 54% 29.96 in 10.0 mi Calm Calm - N/A   Clear
4:35 PM 75.2 °F 59.0 °F 57% 29.96 in 10.0 mi Calm Calm - N/A   Clear
4:55 PM 73.4 °F 59.0 °F 61% 29.96 in 10.0 mi Calm Calm - N/A   Clear
5:15 PM 71.6 °F 60.8 °F 69% 29.96 in 10.0 mi Calm Calm - N/A   Clear
5:35 PM 69.8 °F 60.8 °F 73% 29.97 in 10.0 mi Calm Calm - N/A   Clear
5:55 PM 68.0 °F 60.8 °F 78% 29.97 in 10.0 mi Calm Calm - N/A   Clear
6:15 PM 64.4 °F 60.8 °F 88% 29.97 in 10.0 mi Calm Calm - N/A   Clear
6:35 PM 64.4 °F 62.6 °F 94% 29.98 in 7.0 mi Calm Calm - N/A   Clear
6:55 PM 62.6 °F 60.8 °F 94% 29.97 in 7.0 mi Calm Calm - N/A   Clear
7:15 PM 62.6 °F 60.8 °F 94% 29.98 in 7.0 mi Calm Calm - N/A   Clear
7:35 PM 62.6 °F 60.8 °F 94% 29.98 in 5.0 mi Calm Calm - N/A   Clear
7:55 PM 62.6 °F 60.8 °F 94% 29.99 in 10.0 mi Calm Calm - N/A   Clear
8:15 PM 60.8 °F 60.8 °F 100% 30.00 in 5.0 mi Calm Calm - N/A   Clear
8:35 PM 60.8 °F 60.8 °F 100% 30.00 in 7.0 mi Calm Calm - N/A   Clear
8:55 PM 60.8 °F 59.0 °F 94% 30.00 in 7.0 mi Calm Calm - N/A   Clear
9:15 PM 59.0 °F 59.0 °F 100% 30.00 in 10.0 mi Calm Calm - N/A   Clear
9:35 PM 59.0 °F 59.0 °F 100% 30.01 in 7.0 mi Calm Calm - N/A   Clear
9:55 PM 60.8 °F 60.8 °F 100% 30.01 in 7.0 mi Calm Calm - N/A   Clear
10:15 PM 62.6 °F 60.8 °F 94% 30.02 in 10.0 mi Calm Calm - N/A   Clear
10:35 PM 60.8 °F 60.8 °F 100% 30.02 in 10.0 mi Calm Calm - N/A   Clear
10:55 PM 60.8 °F 60.8 °F 100% 30.02 in 10.0 mi Calm Calm - N/A   Clear
11:15 PM 60.8 °F 60.8 °F 100% 30.03 in 7.0 mi Calm Calm - N/A   Clear
11:35 PM 60.8 °F 60.8 °F 100% 30.03 in 10.0 mi Calm Calm - N/A   Clear
11:55 PM 60.8 °F 60.8 °F 100% 30.02 in 7.0 mi Calm Calm - N/A   Clear